Content
SEND FEEDBACK

Daily
Averages
Monthly
Summary
United States of America

CASTLE HAYNE, NORTH CAROLINA


Home > North America > United States > North Carolina
Elevation: 35 feet     Latitude: 34 19N     Longitude: 077 55W

WEATHER
 
SELECT A DAY
Number of Records: 208,703;   Date Range: 1/1/95 - 7/23/14
 
SHARE

PRINT THIS DATA

[ ← Previous Day ]
WEATHER ALMANAC - MAY 1, 2013
[ Next Day → ]
[ °C ]   °F
Weather ElementAverageHighLow
Temperature63.7 °F73 °F (12:53 pm)59 °F (2:53 am)
Dewpoint59.6 °F63 °F (4:53 pm)55.4 °F (3:07 am)
Humidity87 %94 % (4:09 pm)59 % (12:53 pm)
Barometer30.17 in30.23 in (10:01 pm)30.10 in (2:53 am)
Wind Speed9.6 mph17.3 mph (9:53 am)
Wind Gust17.3 mph (1:53 pm)
Weather ElementAverage
Visibility7.7 mi
Wind DirectionNE (44.6 °)

Weather ElementTotal
Precipitation0.20 in
Cooling Degree Days1 (Base 65)
Growing Degree Days16 (Base 50)
Averaged from 52 records on May 1, 2013
WEATHER CONDITIONS BREAKOUT
WIND DIRECTION BREAKOUT
WEATHER BY HOUR - MAY 1, 2013
[ °C ]   °F
Local TimeTemperatureDewpointHumidityBarometerVisibilityWind DirectionWind SpeedGust SpeedPrecipitationEventsConditions
1:53 AM60.1 °F55.9 °F86 %30.11 in10.0 miNNE (20°)8.1 mphClear
2:53 AM59.0 °F55.9 °F90 %30.10 in10.0 miNNE (20°)10.4 mphPartly Cloudy
3:07 AM59.0 °F55.4 °F88 %30.10 in10.0 miNNE (20°)15.0 mphMostly Cloudy
3:53 AM59.0 °F55.9 °F90 %30.11 in10.0 miNNE (20°)8.1 mphOvercast
4:04 AM59.0 °F55.4 °F88 %30.11 in10.0 miNNE (20°)8.1 mphOvercast
4:53 AM60.1 °F55.9 °F86 %30.12 in10.0 miNNE (20°)10.4 mphOvercast
5:31 AM60.8 °F55.4 °F82 %30.11 in10.0 miNNE (20°)8.1 mphOvercast
5:53 AM60.1 °F55.9 °F86 %30.12 in10.0 miNNE (30°)8.1 mphOvercast
6:53 AM59.0 °F55.4 °F88 %30.14 in10.0 miNorth (10°)8.1 mphMostly Cloudy
7:00 AM59.0 °F55.4 °F88 %30.14 in10.0 miNorth (10°)8.1 mphMostly Cloudy
7:09 AM60.8 °F55.4 °F82 %30.14 in10.0 miNorth (360°)8.1 mphScattered Clouds
7:20 AM60.8 °F57.2 °F88 %30.14 in10.0 miNorth (10°)10.4 mphMostly Cloudy
7:46 AM60.8 °F57.2 °F88 %30.14 in10.0 miNorth (10°)9.2 mphOvercast
7:53 AM60.1 °F57.0 °F90 %30.14 in10.0 miNorth (10°)10.4 mphOvercast
8:05 AM60.8 °F57.2 °F88 %30.14 in10.0 miNNE (20°)9.2 mphMostly Cloudy
8:22 AM62.6 °F57.2 °F82 %30.15 in10.0 miNNE (20°)10.4 mphOvercast
8:36 AM62.6 °F57.2 °F82 %30.14 in10.0 miNorth (10°)10.4 mphOvercast
8:43 AM62.6 °F57.2 °F82 %30.14 in10.0 miNorth (10°)9.2 mphOvercast
8:53 AM62.1 °F57.0 °F84 %30.14 in10.0 miNE (40°)13.8 mphOvercast
9:53 AM63.0 °F55.9 °F78 %30.16 in10.0 miNE (40°)17.3 mphOvercast
10:53 AM66.2 °F57.2 °F73 %30.18 in10.0 miNE (50°)11.5 mphOvercast
11:53 AM70.0 °F57.9 °F65 %30.19 in10.0 miNNE (20°)11.5 mphOvercast
12:27 PM71.6 °F57.2 °F60 %30.18 in10.0 miNE (40°)11.5 mphMostly Cloudy
12:53 PM73.0 °F57.9 °F59 %30.17 in10.0 miNorth (10°)9.2 mphOvercast
1:53 PM73.0 °F57.9 °F59 %30.16 in10.0 miNE (40°)12.7 mph17.3 mphOvercast
2:53 PM72.0 °F59.0 °F64 %30.17 in10.0 miEast (100°)9.2 mphOvercast
3:53 PM66.0 °F61.0 °F84 %30.19 in6.0 miEast (80°)9.2 mph0.00 inRainLight Rain
4:09 PM64.4 °F62.6 °F94 %30.19 in2.5 miEast (90°)10.4 mph0.00 inRainLight Rain
4:16 PM64.4 °F62.6 °F94 %30.19 in1.5 miEast (90°)8.1 mph0.00 inRainLight Rain
4:21 PM64.4 °F62.6 °F94 %30.19 in1.2 miEast (80°)9.2 mph0.01 inRainLight Rain
4:31 PM64.4 °F62.6 °F94 %30.19 in2.0 miENE (70°)6.9 mph0.01 inRainLight Rain
4:40 PM64.4 °F62.6 °F94 %30.19 in5.0 miENE (60°)8.1 mph0.01 inRainLight Rain
4:48 PM64.4 °F62.6 °F94 %30.19 in3.0 miNE (50°)9.2 mph0.01 inRainLight Rain
4:53 PM64.9 °F63.0 °F93 %30.19 in3.0 miNE (50°)10.4 mph0.02 inRainLight Rain
5:05 PM64.4 °F62.6 °F94 %30.19 in1.8 miNE (40°)11.5 mph0.00 inRainLight Rain
5:18 PM64.4 °F62.6 °F94 %30.19 in2.0 miNE (50°)8.1 mph0.01 inRainLight Rain
5:26 PM64.4 °F62.6 °F94 %30.19 in2.5 miNE (40°)9.2 mph0.01 inRainLight Rain
5:33 PM64.4 °F62.6 °F94 %30.18 in1.8 miNNE (30°)9.2 mph0.01 inRainLight Rain
5:41 PM64.4 °F62.6 °F94 %30.18 in3.0 miNNE (20°)8.1 mph0.02 inRainLight Rain
5:53 PM64.9 °F63.0 °F93 %30.18 in8.0 miNNE (30°)9.2 mph0.02 inOvercast
6:19 PM64.4 °F62.6 °F94 %30.18 in10.0 miNNE (30°)9.2 mphOvercast
6:53 PM64.9 °F63.0 °F93 %30.18 in10.0 miNNE (20°)6.9 mphOvercast
7:53 PM64.9 °F63.0 °F93 %30.19 in4.0 miNNE (20°)9.2 mph0.00 inRainLight Rain
8:53 PM64.9 °F63.0 °F93 %30.20 in4.0 miNNE (30°)5.8 mph0.02 inRainLight Rain
9:03 PM64.4 °F62.6 °F94 %30.21 in3.0 miNE (50°)4.6 mph0.01 inRainLight Rain
9:38 PM64.4 °F62.6 °F94 %30.22 in7.0 miNE (50°)5.8 mph0.02 inRainLight Rain
9:53 PM64.9 °F63.0 °F93 %30.22 in10.0 miENE (70°)10.4 mph0.02 inOvercast
10:01 PM64.4 °F62.6 °F94 %30.23 in10.0 miENE (70°)11.5 mphOvercast
10:10 PM64.4 °F62.6 °F94 %30.23 in10.0 miENE (60°)9.2 mphOvercast
10:34 PM64.4 °F62.6 °F94 %30.23 in10.0 miENE (60°)8.1 mphOvercast
10:53 PM64.0 °F62.1 °F93 %30.23 in10.0 miNE (50°)12.7 mphOvercast
11:53 PM63.0 °F61.0 °F93 %30.23 in10.0 miNE (50°)10.4 mphScattered Clouds
Hourly data recorded from KILM, located miles away from Castle Hayne, North Carolina







STORIES FROM OUR PARTNERS